Location: Quaker Farms
(41.4276°N, 73.1557°W)
Time: 01:07:50
(UTC+00:00)

Altair - Pass Details

Date: 20 June 2021
Orbit: 1501 x 1682 km, 47.2° (Epoch: 23 July)

Event Time Altitude Azimuth Distance (km) Brightness Sun altitude
Rises 19:13:13 0° 257° (WSW) 4,688 10.6 56.0°
Reaches altitude 10° 19:16:15 10° 260° (W) 3,727 10.3 55.4°
Maximum altitude 19:25:43 71° 344° (NNW) 1,670 8.7 53.8°
Drops below altitude 10° 19:35:36 10° 69° (ENE) 3,877 9.4 52.0°
Sets 19:38:49 0° 71° (ENE) 4,885 9.8 51.4°
